• Em Portugal
  • Lista de países
  • Para 7 dias
  • Temperatura da água
  • Mapas de satélite
  • Mapa do tempo
  • Widgets de tempo
  • user-avatar
    Iniciar Sessão

    Previsão horária em Dhalkuta

    Hoje, 20 Junho, Quarta-feira

    Tempo Temperatura Precipitação Vento Pressão Humidade
    00:00 +32°C° 0 mm 2 m/s 745 mmHg 70%
    01:00 +31°C° 0,6 mm 2 m/s 745 mmHg 73%
    02:00 +31°C° 0,6 mm 2 m/s 745 mmHg 75%
    03:00 +30°C° 0,6 mm 3 m/s 745 mmHg 77%
    04:00 +30°C° 0,4 mm 3 m/s 745 mmHg 78%
    05:00 +30°C° 0,4 mm 3 m/s 745 mmHg 78%
    06:00 +30°C° 0 mm 2 m/s 745 mmHg 81%
    07:00 +33°C° 0 mm 3 m/s 745 mmHg 76%
    08:00 +34°C° 0 mm 3 m/s 745 mmHg 71%
    09:00 +35°C° 0 mm 4 m/s 745 mmHg 65%
    10:00 +36°C° 0,2 mm 3 m/s 745 mmHg 62%
    11:00 +38°C° 0,2 mm 3 m/s 745 mmHg 58%
    12:00 +39°C° 0 mm 3 m/s 745 mmHg 54%
    13:00 +38°C° 0,7 mm 3 m/s 745 mmHg 55%
    14:00 +38°C° 0,7 mm 3 m/s 744 mmHg 56%
    15:00 +38°C° 0,7 mm 2 m/s 744 mmHg 56%
    16:00 +38°C° 1 mm 2 m/s 744 mmHg 58%
    17:00 +37°C° 1 mm 2 m/s 744 mmHg 60%
    18:00 +37°C° 1 mm 3 m/s 744 mmHg 61%
    19:00 +36°C° 2,8 mm 3 m/s 744 mmHg 67%
    20:00 +34°C° 2,8 mm 3 m/s 744 mmHg 72%
    21:00 +33°C° 2,8 mm 3 m/s 745 mmHg 78%
    22:00 +31°C° 0,8 mm 3 m/s 745 mmHg 77%
    23:00 +31°C° 0,8 mm 3 m/s 745 mmHg 76%

    Amanhã, 21 Junho, Quinta-feira

    Tempo Temperatura Precipitação Vento Pressão Humidade
    00:00 +31°C° 0,8 mm 3 m/s 745 mmHg 76%
    01:00 +31°C° 0,3 mm 3 m/s 745 mmHg 76%
    02:00 +31°C° 0,3 mm 3 m/s 745 mmHg 77%
    03:00 +30°C° 0,3 mm 3 m/s 745 mmHg 77%
    04:00 +30°C° 0,1 mm 3 m/s 745 mmHg 77%
    05:00 +30°C° 0,1 mm 3 m/s 744 mmHg 76%
    06:00 +30°C° 0,1 mm 3 m/s 744 mmHg 76%
    07:00 +32°C° 0 mm 4 m/s 745 mmHg 71%
    08:00 +34°C° 0 mm 4 m/s 745 mmHg 66%
    09:00 +36°C° 0 mm 5 m/s 745 mmHg 62%
    10:00 +37°C° 0,4 mm 5 m/s 745 mmHg 59%
    11:00 +39°C° 0,4 mm 5 m/s 745 mmHg 57%
    12:00 +40°C° 0,4 mm 5 m/s 745 mmHg 55%
    13:00 +40°C° 0,5 mm 4 m/s 745 mmHg 54%
    14:00 +40°C° 0,5 mm 4 m/s 744 mmHg 54%
    15:00 +40°C° 0,5 mm 4 m/s 744 mmHg 53%
    16:00 +40°C° 0,5 mm 4 m/s 744 mmHg 56%
    17:00 +38°C° 0,5 mm 3 m/s 743 mmHg 58%
    18:00 +37°C° 0,5 mm 3 m/s 743 mmHg 61%
    19:00 +36°C° 0,5 mm 3 m/s 744 mmHg 64%
    20:00 +35°C° 0,5 mm 3 m/s 744 mmHg 67%
    21:00 +34°C° 0,5 mm 4 m/s 744 mmHg 70%
    22:00 +34°C° 0,2 mm 4 m/s 744 mmHg 70%
    23:00 +33°C° 0,2 mm 3 m/s 744 mmHg 70%

    Depois de amanhã, 22 Junho, Sexta-feira

    Tempo Temperatura Precipitação Vento Pressão Humidade
    00:00 +33°C° 0,2 mm 3 m/s 744 mmHg 70%
    01:00 +33°C° 0 mm 4 m/s 744 mmHg 70%
    02:00 +32°C° 0 mm 4 m/s 744 mmHg 70%
    03:00 +32°C° 0 mm 4 m/s 744 mmHg 71%
    04:00 +32°C° 0 mm 4 m/s 744 mmHg 72%
    05:00 +30°C° 0 mm 5 m/s 744 mmHg 72%
    06:00 +30°C° 0 mm 5 m/s 744 mmHg 73%
    07:00 +32°C° 0 mm 5 m/s 744 mmHg 70%
    08:00 +34°C° 0 mm 5 m/s 745 mmHg 67%
    09:00 +35°C° 0 mm 6 m/s 745 mmHg 63%
    10:00 +36°C° 0,4 mm 6 m/s 745 mmHg 61%
    11:00 +37°C° 0,4 mm 5 m/s 745 mmHg 59%
    12:00 +39°C° 0,4 mm 5 m/s 745 mmHg 57%
    13:00 +40°C° 0,5 mm 5 m/s 744 mmHg 55%
    14:00 +40°C° 0,5 mm 4 m/s 743 mmHg 54%
    15:00 +41°C° 0,5 mm 4 m/s 743 mmHg 52%
    16:00 +40°C° 0,6 mm 4 m/s 742 mmHg 55%
    17:00 +38°C° 0,6 mm 4 m/s 742 mmHg 58%
    18:00 +37°C° 0,6 mm 3 m/s 742 mmHg 61%
    19:00 +36°C° 1,1 mm 4 m/s 743 mmHg 65%
    20:00 +35°C° 1,1 mm 4 m/s 743 mmHg 70%
    21:00 +33°C° 1,1 mm 4 m/s 744 mmHg 74%
    22:00 +33°C° 0,4 mm 4 m/s 744 mmHg 75%
    23:00 +32°C° 0,4 mm 4 m/s 744 mmHg 76%

    23 Junho, Sábado

    Tempo Temperatura Precipitação Vento Pressão Humidade
    00:00 +32°C° 0,4 mm 5 m/s 744 mmHg 77%
    01:00 +32°C° 1,1 mm 5 m/s 744 mmHg 79%
    02:00 +30°C° 1,1 mm 5 m/s 743 mmHg 81%
    03:00 +30°C° 1,1 mm 4 m/s 743 mmHg 83%
    04:00 +29°C° 2,2 mm 4 m/s 743 mmHg 84%
    05:00 +29°C° 2,2 mm 4 m/s 743 mmHg 85%
    06:00 +29°C° 2,2 mm 4 m/s 743 mmHg 86%
    07:00 +30°C° 0,5 mm 4 m/s 743 mmHg 82%
    08:00 +32°C° 0,5 mm 4 m/s 744 mmHg 78%
    09:00 +33°C° 0,5 mm 4 m/s 744 mmHg 75%
    10:00 +34°C° 0,1 mm 4 m/s 744 mmHg 74%
    11:00 +34°C° 0,1 mm 5 m/s 744 mmHg 73%
    12:00 +35°C° 0,1 mm 5 m/s 743 mmHg 72%
    13:00 +35°C° 0,6 mm 5 m/s 743 mmHg 70%
    14:00 +36°C° 0,6 mm 5 m/s 742 mmHg 68%
    15:00 +36°C° 0,6 mm 5 m/s 742 mmHg 66%
    16:00 +36°C° 0,4 mm 5 m/s 742 mmHg 68%
    17:00 +35°C° 0,4 mm 4 m/s 742 mmHg 70%
    18:00 +35°C° 0,4 mm 4 m/s 742 mmHg 72%
    19:00 +34°C° 0,9 mm 4 m/s 742 mmHg 75%
    20:00 +33°C° 0,9 mm 5 m/s 742 mmHg 79%
    21:00 +32°C° 0,9 mm 5 m/s 743 mmHg 82%
    22:00 +30°C° 0,9 mm 5 m/s 743 mmHg 83%
    23:00 +30°C° 0,9 mm 5 m/s 743 mmHg 83%

    24 Junho, Domingo

    Tempo Temperatura Precipitação Vento Pressão Humidade
    00:00 +30°C° 0,9 mm 5 m/s 743 mmHg 84%
    01:00 +29°C° 2,2 mm 5 m/s 743 mmHg 86%
    02:00 +29°C° 2,2 mm 5 m/s 743 mmHg 88%
    03:00 +29°C° 2,2 mm 5 m/s 742 mmHg 90%
    04:00 +29°C° 2,2 mm 4 m/s 742 mmHg 90%
    05:00 +29°C° 2,2 mm 4 m/s 743 mmHg 90%
    06:00 +29°C° 2,2 mm 4 m/s 743 mmHg 89%
    07:00 +29°C° 1,5 mm 4 m/s 743 mmHg 87%
    08:00 +30°C° 1,5 mm 4 m/s 743 mmHg 85%
    09:00 +32°C° 1,5 mm 4 m/s 744 mmHg 83%
    10:00 +32°C° 0,4 mm 4 m/s 744 mmHg 80%
    11:00 +33°C° 0,4 mm 4 m/s 743 mmHg 78%
    12:00 +34°C° 0,4 mm 4 m/s 743 mmHg 75%
    13:00 +34°C° 0,7 mm 4 m/s 743 mmHg 74%
    14:00 +35°C° 0,7 mm 4 m/s 742 mmHg 73%
    15:00 +35°C° 0,7 mm 4 m/s 742 mmHg 72%
    16:00 +35°C° 0,7 mm 4 m/s 741 mmHg 74%
    17:00 +34°C° 0,7 mm 4 m/s 741 mmHg 77%
    18:00 +34°C° 0,7 mm 4 m/s 741 mmHg 79%
    19:00 +33°C° 0,4 mm 4 m/s 742 mmHg 81%
    20:00 +32°C° 0,4 mm 4 m/s 742 mmHg 82%
    21:00 +32°C° 0,4 mm 4 m/s 743 mmHg 83%
    22:00 +30°C° 0,9 mm 4 m/s 743 mmHg 85%
    23:00 +30°C° 0,9 mm 4 m/s 743 mmHg 86%

    25 Junho, Segunda-feira

    Tempo Temperatura Precipitação Vento Pressão Humidade
    00:00 +30°C° 0,9 mm 4 m/s 743 mmHg 88%
    01:00 +29°C° 1,3 mm 4 m/s 743 mmHg 88%
    02:00 +29°C° 1,3 mm 4 m/s 742 mmHg 88%
    03:00 +29°C° 1,3 mm 4 m/s 741 mmHg 88%
    04:00 +29°C° 1,2 mm 4 m/s 742 mmHg 88%
    05:00 +29°C° 1,2 mm 4 m/s 742 mmHg 88%
    06:00 +29°C° 1,2 mm 4 m/s 742 mmHg 88%
    07:00 +30°C° 1 mm 4 m/s 742 mmHg 85%
    08:00 +30°C° 1 mm 4 m/s 743 mmHg 81%
    09:00 +32°C° 1 mm 5 m/s 743 mmHg 78%
    10:00 +33°C° 0,5 mm 5 m/s 743 mmHg 76%
    11:00 +34°C° 0,5 mm 5 m/s 743 mmHg 75%
    12:00 +35°C° 0,5 mm 5 m/s 742 mmHg 73%
    13:00 +35°C° 0,9 mm 4 m/s 742 mmHg 72%
    14:00 +35°C° 0,9 mm 4 m/s 742 mmHg 71%
    15:00 +36°C° 0,9 mm 4 m/s 741 mmHg 70%
    16:00 +35°C° 0,7 mm 4 m/s 741 mmHg 71%
    17:00 +35°C° 0,7 mm 4 m/s 741 mmHg 73%
    18:00 +34°C° 0,7 mm 4 m/s 741 mmHg 75%
    19:00 +34°C° 0,5 mm 4 m/s 741 mmHg 77%
    20:00 +33°C° 0,5 mm 4 m/s 741 mmHg 79%
    21:00 +32°C° 0,5 mm 4 m/s 742 mmHg 82%
    22:00 +32°C° 0,7 mm 4 m/s 742 mmHg 83%
    23:00 +30°C° 0,7 mm 4 m/s 742 mmHg 85%
    Mostrar mais